Погода в Заславле

Беларусь     54°00′16″N   27°17′28″E
темп.,
°C
ветер,
м/с
пор.,
м/с
влажн.,
%
обл.,
%
осадки,
мм/ч
давл.,
гПа
погр.,
м
8 марта, пн
пн800:00−4зсз6128952 0.1 1006439
03:00−6зсз6138526 0.1 1006550
06:00−6з6129347 0.0 1007551
09:00−5сз599071 0.4 1008708
12:00−4ссз688396 0.7 1010989
15:00−3сз687498 0.8 10121214
18:00−5ссз488598 0.2 1014590
21:00−6с388799 0.3 1016267
9 марта, вт
вт900:00−8с248998 0.0 101893
03:00−9ссз238964 0.0 101928
06:00−10ссз23910 0.0 102032
09:00−9сз229517 0.0 102253
12:00−6сз238189 0.0 1022552
15:00−4зсз236978 0.0 1022788
18:00−6зюз238459 0.0 102260
21:00−8юз338769 0.0 102342
10 марта, ср
ср1000:00−8зюз338888 0.0 102350
03:00−9юз339081 0.0 102350
06:00−10юз348837 0.0 102367
09:00−9юз358838 0.0 1023124
12:00−5юз358199 0.0 1023289
15:00−4юз347779 0.0 1022453
18:00−5ююз228458 0.0 102132
21:00−7ююз238365 0.0 102224
11 марта, чт
чт1100:00−8ю22830 0.0 102321
03:00−8ю23840 0.0 102321
06:00−8ююв238237 0.0 102227
09:00−8ююв348536 0.0 102294
12:00−3ююв59800 0.0 1021508
15:00−2ююв710768 0.0 10181172
18:00−2ююв6137787 0.0 1015623
21:00−3ююв9168693 0.0 1013835
12 марта, пт
пт1200:00−3ююв111794100 0.4 1009773
03:00−2ююв111895100 3.1 1003923
06:00−1ююв101797100 3.6 999674
09:00+2зюз613100100 7.3 998406
12:00+2зюз61310098 0.1 998475
15:00+1зюз81510099 1.8 999706
18:00+1зюз61399100 1.4 1000551
21:00+1зюз51294100 1.8 1002558